Weather History for Ainsworth, NE

Change the Weather History Date:

Tuesday, April 29, 2014

  Actual Average Record
Temperature  
Mean Temperature 38 °F -  
Max Temperature 43 °F 60 °F 87 °F (2007)
Min Temperature 33 °F 39 °F 30 °F (1998)
Degree Days  
Heating Degree Days 27    
Moisture  
Dew Point 34 °F    
Average Humidity 91    
Maximum Humidity 100    
Minimum Humidity 74    
Precipitation  
Precipitation 0.16 in - - ()
Sea Level Pressure  
Sea Level Pressure 29.88 in    
Wind  
Wind Speed 26 mph (NNW)    
Max Wind Speed 34 mph    
Max Gust Speed 44 mph    
Visibility 7 miles    
Events Snow    
Averages and records for this station are not official NWS values.
T = Trace of Precipitation, MM = Missing Value Source: NWS Daily Summary

Daily Weather History Graph

Daily Weather History Graph

Search for Another Location

Airport:

Trip Planner

Search our weather history database for the weather conditions in past years. The results will help you decide how hot, cold, wet, or windy it might be!

Date:

Astronomy

Apr. 29, 2014 Rise Set
Actual Time 6:37 AM CDT 8:37 PM CDT
Civil Twilight 6:06 AM CDT 9:08 PM CDT
Nautical Twilight 5:29 AM CDT 9:46 PM CDT
Astronomical Twilight 4:48 AM CDT 10:27 PM CDT
Moon 6:56 AM CDT (4/29) 9:20 PM CDT (4/29)
Length of Visible Light 15h 01m
Length of Day
14h 00m
New Moon, 0% of the Moon is Illuminated
Apr 29
New Moon
May 6
First Quarter
May 14
Full
May 21
Last Quarter
May 28
New

Hourly Weather History & Observations

Time (CDT) Temp. Windchill Dew Point Humidity Pressure Visibility Wind Dir Wind Speed Gust Speed Precip Events Conditions
12:15 AM 34.0 °F 21.8 °F 33.4 °F 98% 29.70 in 3.0 mi NNW 23.0 mph 29.9 mph N/A Snow Light Snow
12:35 AM 34.0 °F 21.5 °F 33.4 °F 98% 29.71 in 2.5 mi NNW 24.2 mph 34.5 mph 0.01 in Snow Light Snow
12:55 AM 34.0 °F 21.3 °F 33.3 °F 97% 29.71 in 1.8 mi NNW 25.3 mph 32.2 mph 0.01 in Snow Light Snow
1:15 AM 33.8 °F 21.0 °F 33.1 °F 97% 29.71 in 1.8 mi NNW 25.3 mph 39.1 mph N/A Snow Light Snow
1:35 AM 34.0 °F 21.3 °F 33.3 °F 97% 29.72 in 3.0 mi NNW 25.3 mph 40.3 mph 0.01 in Snow Light Snow
1:55 AM 34.2 °F 21.0 °F 33.3 °F 97% 29.72 in 5.0 mi NNW 27.6 mph 35.7 mph 0.01 in Snow Light Snow
2:15 AM 34.0 °F 21.0 °F 33.1 °F 96% 29.73 in 2.5 mi NNW 26.5 mph 35.7 mph 0.01 in Snow Light Snow
2:35 AM 33.8 °F 21.6 °F 33.1 °F 97% 29.73 in 1.5 mi NNW 23.0 mph 33.4 mph 0.01 in Snow Light Snow
2:55 AM 33.8 °F 20.8 °F 32.9 °F 96% 29.74 in 0.8 mi NNW 26.5 mph 33.4 mph 0.01 in Snow Snow
3:15 AM 33.8 °F 21.0 °F 33.1 °F 97% 29.74 in 1.2 mi NNW 25.3 mph 32.2 mph N/A Snow Light Snow
3:35 AM 33.8 °F 21.3 °F 33.1 °F 97% 29.74 in 4.0 mi NW 24.2 mph 33.4 mph N/A Snow Light Snow
3:55 AM 33.8 °F 20.8 °F 33.8 °F 100% 29.75 in 2.5 mi NNW 26.5 mph 33.4 mph N/A Snow Light Snow
4:15 AM 33.8 °F 20.8 °F 33.1 °F 97% 29.76 in 1.5 mi NW 26.5 mph 35.7 mph N/A Snow Light Snow
4:35 AM 33.8 °F 20.1 °F 32.9 °F 96% 29.76 in 4.0 mi NNW 29.9 mph 39.1 mph N/A Snow Light Snow
4:55 AM 33.8 °F 19.9 °F 32.9 °F 96% 29.77 in 4.0 mi NNW 31.1 mph 36.8 mph N/A Snow Light Snow
5:15 AM 33.8 °F 20.8 °F 32.7 °F 96% 29.77 in 2.0 mi NNW 26.5 mph 38.0 mph N/A Snow Light Snow
5:35 AM 33.8 °F 20.8 °F 32.5 °F 95% 29.77 in 5.0 mi NNW 26.5 mph 35.7 mph N/A Snow Light Snow
5:55 AM 33.8 °F 19.9 °F 32.5 °F 95% 29.78 in 5.0 mi NNW 31.1 mph 38.0 mph N/A Snow Light Snow
6:15 AM 33.8 °F 20.1 °F 32.4 °F 94% 29.79 in 10.0 mi NNW 29.9 mph 38.0 mph N/A   Overcast
6:35 AM 34.0 °F 20.8 °F 32.4 °F 94% 29.80 in 10.0 mi NNW 27.6 mph 38.0 mph N/A   Overcast
6:55 AM 34.0 °F 21.3 °F 32.5 °F 94% 29.80 in 10.0 mi NNW 25.3 mph 34.5 mph N/A Snow Light Snow
7:15 AM 34.0 °F 20.8 °F 32.5 °F 94% 29.80 in 3.0 mi NNW 27.6 mph 36.8 mph N/A Snow Light Snow
7:35 AM 33.8 °F 20.1 °F 33.8 °F 100% 29.81 in 4.0 mi NNW 29.9 mph 38.0 mph N/A Snow Light Snow
7:55 AM 34.2 °F 20.8 °F 32.9 °F 95% 29.82 in 7.0 mi NNW 28.8 mph 39.1 mph N/A   Overcast
8:15 AM 34.0 °F 20.3 °F 32.9 °F 96% 29.82 in 2.0 mi NNW 29.9 mph 35.7 mph N/A Snow Light Snow
8:35 AM 34.0 °F 20.3 °F 32.9 °F 96% 29.82 in 1.8 mi NNW 29.9 mph 35.7 mph 0.01 in Snow Light Snow
8:55 AM 34.2 °F 20.6 °F 33.1 °F 96% 29.83 in 4.0 mi NNW 29.9 mph 39.1 mph 0.02 in Snow Light Snow
9:15 AM 34.3 °F 20.2 °F 32.9 °F 94% 29.83 in 5.0 mi NNW 33.4 mph 42.6 mph 0.01 in   Overcast
9:35 AM 34.3 °F 20.6 °F 33.1 °F 95% 29.83 in 5.0 mi NNW 31.1 mph 42.6 mph 0.02 in   Overcast
9:55 AM 34.3 °F 21.5 °F 33.1 °F 95% 29.84 in 10.0 mi NNW 26.5 mph 39.1 mph 0.04 in   Overcast
10:15 AM 34.7 °F 21.8 °F 32.9 °F 93% 29.84 in 10.0 mi NNW 27.6 mph 36.8 mph 0.01 in   Overcast
10:35 AM 34.7 °F 21.8 °F 32.9 °F 93% 29.85 in 7.0 mi NNW 27.6 mph 36.8 mph 0.02 in   Overcast
10:55 AM 34.9 °F 22.0 °F 33.1 °F 93% 29.85 in 5.0 mi NNW 27.6 mph 40.3 mph 0.03 in Snow Light Snow
11:15 AM 34.9 °F 21.8 °F 33.1 °F 93% 29.86 in 3.0 mi NNW 28.8 mph 40.3 mph 0.01 in Snow Light Snow
11:35 AM 35.1 °F 21.2 °F 33.3 °F 93% 29.87 in 4.0 mi NNW 33.4 mph 39.1 mph 0.02 in Snow Light Snow
11:55 AM 35.1 °F 22.0 °F 33.3 °F 93% 29.87 in 3.0 mi NNW 28.8 mph 41.4 mph 0.03 in Snow Light Snow
12:15 PM 35.1 °F 21.6 °F 33.8 °F 95% 29.88 in 5.0 mi NNW 31.1 mph 38.0 mph 0.01 in Snow Light Snow
12:35 PM 35.8 °F 23.0 °F 33.8 °F 92% 29.88 in 7.0 mi NNW 28.8 mph 39.1 mph 0.01 in Snow Light Snow
12:55 PM 35.6 °F 22.3 °F 33.4 °F 92% 29.89 in 7.0 mi NNW 31.1 mph 41.4 mph 0.01 in   Overcast
1:15 PM 35.8 °F 21.9 °F 33.4 °F 91% 29.89 in 10.0 mi NNW 34.5 mph 40.3 mph N/A   Overcast
1:35 PM 36.7 °F 23.6 °F 34.0 °F 90% 29.88 in 10.0 mi NNW 32.2 mph 39.1 mph N/A   Overcast
1:55 PM 36.7 °F 24.2 °F 33.6 °F 89% 29.89 in 10.0 mi NNW 28.8 mph 43.7 mph N/A   Overcast
2:15 PM 36.5 °F 24.2 °F 33.8 °F 90% 29.90 in 7.0 mi NNW 27.6 mph 41.4 mph N/A   Overcast
2:35 PM 36.5 °F 23.1 °F 34.0 °F 91% 29.91 in 7.0 mi NNW 33.4 mph 42.6 mph N/A   Overcast
2:55 PM 36.0 °F 22.6 °F 33.3 °F 90% 29.92 in 10.0 mi NNW 32.2 mph 39.1 mph N/A   Overcast
3:15 PM 36.0 °F 23.5 °F 33.4 °F 91% 29.92 in 5.0 mi NNW 27.6 mph 39.1 mph N/A   Overcast
3:35 PM 35.6 °F 23.2 °F 33.8 °F 93% 29.93 in 2.0 mi NNW 26.5 mph 36.8 mph N/A Snow Light Snow
3:55 PM 36.0 °F 23.5 °F 34.7 °F 95% 29.94 in 7.0 mi NNW 27.6 mph 35.7 mph N/A Snow Light Snow
4:15 PM 36.0 °F 23.2 °F 34.0 °F 93% 29.94 in 10.0 mi NNW 28.8 mph 36.8 mph N/A   Overcast
4:35 PM 36.1 °F 23.9 °F 34.0 °F 92% 29.94 in 10.0 mi NNW 26.5 mph 42.6 mph N/A   Overcast
4:55 PM 37.0 °F 25.4 °F 34.7 °F 91% 29.95 in 10.0 mi NNW 25.3 mph 33.4 mph N/A   Overcast
5:35 PM 38.8 °F 28.3 °F 35.4 °F 88% 29.96 in 10.0 mi NNW 23.0 mph 34.5 mph N/A   Overcast
5:55 PM 41.0 °F 30.5 °F 36.5 °F 84% 29.96 in 10.0 mi NW 26.5 mph 36.8 mph N/A   Overcast
6:15 PM 42.1 °F 31.1 °F 36.5 °F 81% 29.97 in 10.0 mi NNW 31.1 mph 39.1 mph N/A   Overcast
6:35 PM 42.8 °F 32.3 °F 36.7 °F 79% 29.98 in 10.0 mi NNW 29.9 mph 41.4 mph N/A   Mostly Cloudy
6:55 PM 42.8 °F 33.5 °F 36.3 °F 78% 29.98 in 10.0 mi NW 23.0 mph 35.7 mph N/A   Scattered Clouds
7:15 PM 43.0 °F 33.3 °F 35.8 °F 76% 29.99 in 10.0 mi NW 25.3 mph 36.8 mph N/A   Mostly Cloudy
7:35 PM 42.8 °F 32.9 °F 36.0 °F 77% 30.00 in 10.0 mi NW 26.5 mph 34.5 mph N/A   Mostly Cloudy
7:55 PM 43.2 °F 34.0 °F 36.0 °F 76% 30.01 in 10.0 mi NW 23.0 mph 29.9 mph N/A   Mostly Cloudy
8:15 PM 43.3 °F 34.2 °F 35.6 °F 74% 30.02 in 10.0 mi NNW 23.0 mph 34.5 mph N/A   Overcast
8:35 PM 42.8 °F 34.8 °F 35.6 °F 76% 30.02 in 10.0 mi NW 17.3 mph 26.5 mph N/A   Overcast
8:55 PM 41.0 °F 31.6 °F 36.0 °F 82% 30.03 in 10.0 mi NW 20.7 mph 25.3 mph N/A   Overcast
9:15 PM 41.0 °F 31.1 °F 36.1 °F 83% 30.03 in 10.0 mi NW 23.0 mph 26.5 mph N/A   Overcast
9:35 PM 40.5 °F 30.4 °F 36.0 °F 84% 30.04 in 10.0 mi NW 23.0 mph - N/A   Overcast
9:55 PM 40.3 °F 31.0 °F 36.0 °F 85% 30.04 in 10.0 mi NW 19.6 mph 25.3 mph N/A   Mostly Cloudy
10:15 PM 40.1 °F 30.2 °F 36.0 °F 85% 30.05 in 10.0 mi NW 21.9 mph 27.6 mph N/A   Mostly Cloudy
10:35 PM 40.1 °F 30.2 °F 35.8 °F 85% 30.05 in 10.0 mi NW 21.9 mph 29.9 mph N/A   Mostly Cloudy
10:55 PM 39.7 °F 29.5 °F 35.8 °F 86% 30.05 in 10.0 mi NW 23.0 mph 31.1 mph N/A   Mostly Cloudy
11:15 PM 39.4 °F 29.8 °F 35.6 °F 86% 30.05 in 10.0 mi NW 19.6 mph 28.8 mph N/A   Mostly Cloudy
11:35 PM 39.4 °F 29.5 °F 35.6 °F 86% 30.05 in 10.0 mi NW 20.7 mph 28.8 mph N/A   Overcast
11:55 PM 39.4 °F 29.8 °F 35.6 °F 86% 30.06 in 10.0 mi NW 19.6 mph 29.9 mph N/A   Overcast